STARLINK-30097

decayed
NORAD ID: 56303 Int'l Des: 2023-056 Owner: SPXS Country: US Constellation: starlink
LEOCIRCULAR

关于 STARLINK-30097

正在加载描述...

高度历史

Altitude vs Time

uPlot chart will show altitude changes over time

两行轨道根数

1 56303U 23056T 24204.96812958 .10965080 92093-5 85403-3 0 9993
2 56303 42.9716 95.2922 0014089 252.0103 232.8544 16.38811302 71203
Epoch: Jul 22, 2024 • Age: 10083 hours

当前状态

Position data unavailable
发射日期 Apr 19, 2023
运行时间 2.4 years
衰减日期 Jul 23, 2024
类型 internet

技术详情

分类 Payload
质量 730.00 kg
干质量 700.00 kg
总质量 730.00 kg
长度 0.30 m
直径 4.10 m
跨度 29.00 m
形状 Box + pan
制造商 SPXS
平台类型 Starlink V2M
阶段状态 Unknown Transfer Status
所有者/国家 SPXS/US

大型星座

Loading constellations...